リニア彗星

294P/LINEAR (2025)

English version
Home page
Updated on September 5, 2024

---------------------------------------------------------------------

・ プロフィール

・ 軌道要素

Epoch 2025 July 24.0 TT = JDT 2460880.5                                         
T 2025 Aug. 11.19204 TT                                 Rudenko                 
q   1.2730403            (2000.0)            P               Q                  
n   0.17298545     Peri.  237.58565     -0.96120464     +0.14474021             
a   3.1900414      Node   309.60053     +0.01104736     -0.83038382             
e   0.6009330      Incl.   17.74299     -0.27561495     -0.53806411             
P   5.70                                                                        
From 239 observations 2008 Jan. 13-2020 Aug. 15, mean residual 1".0.            

・ 光度変化

        H = 16.5  G = 0.15

---------------------------------------------------------------------

軌道要素はM.P.E.C. 2020-S188に掲載されたものです。
光度グラフはComet for Windowsで作成したものです。

---------------------------------------------------------------------

Copyright(C) Seiichi Yoshida (comet@aerith.net). All rights reserved.